Current weather by "City, St" or "zip code"  
 
Advertise Here

Current Conditions: Tri-Township Airport, IL

Overcast


23.0 F

Last Updated on Jan 18 2021, 4:55 am CST
Humidity: 93%
Wind Speed: NW 3.5 mph
Barometer 29.84 in
Dewpoint: 21.2 F
Visibility: 10.00 mi
Precip: --
Heat Index: NA
Wind Chill: NA
Current conditions at:

Tri-Township Airport, IL (KSFY)

Lat: 42.04544 Lon: 90.11009

Local Radar Image active severe weather and emergency alerts image image weather storm and storm spotter reports image weather observation monitoring service image
Local
Radar
Active
Alerts
Storm Reports Obs
Monitoring

Sign-up For Email & Text Message Weather Alert Notification Services


Advertise Here

Observation History for Tri-Township Airport, IL


Time Wind
(mph)
Vis
(mi)
Weather Precip (in) Temperature (F) Relative
Humidity
Wind
Chill
(F)
Heat
Index
(F)
Pressure
Air Dwpt altimeter
(in)
sea level
(mb)
Rmks
4:55 am CST NW 3.5 10.00 Overcast -- 23.0 21.2 93% NA NA 29.84 M
3:55 am CST W 4.6 10.00 Overcast -- 23.0 19.4 86% 17 NA 29.83 M
2:55 am CST N 0.0 10.00 Mostly Cloudy -- 23.0 19.4 86% NA NA 29.81 M
2:35 am CST W 4.6 10.00 Overcast -- 25.0 19.4 80% 19 NA 29.81 M
1:55 am CST W 4.6 10.00 Overcast -- 25.0 21.2 86% 19 NA 29.81 M
12:55 am CST NW 6.9 10.00 Overcast -- 27.0 21.2 80% 20 NA 29.80 M
11:55 pm CST W 5.8 10.00 Overcast -- 27.0 21.2 80% 20 NA 29.81 M
11:35 pm CST W 3.5 10.00 Overcast -- 27.0 21.2 80% NA NA 29.81 M
10:55 pm CST W 4.6 10.00 Overcast -- 27.0 21.2 80% 22 NA 29.81 M
9:55 pm CST W 4.6 10.00 Overcast -- 27.0 23.0 86% 22 NA 29.80 M
8:55 pm CST W 5.8 10.00 Overcast -- 27.0 23.0 86% 20 NA 29.79 M
8:35 pm CST W 5.8 10.00 Overcast -- 27.0 23.0 86% 20 NA 29.80 M
7:55 pm CST W 6.9 10.00 Overcast -- 27.0 23.0 86% 20 NA 29.80 M
6:55 pm CST W 6.9 10.00 Overcast -- 28.0 23.0 80% 21 NA 29.80 M
5:55 pm CST W 4.6 10.00 Overcast -- 28.0 24.8 86% 23 NA 29.79 M
4:55 pm CST W 3.5 10.00 Overcast -- 30.0 26.6 86% NA NA 29.77 M
3:55 pm CST W 3.5 10.00 Overcast -- 32.0 24.8 75% NA NA 29.76 M
2:55 pm CST NW 6.9 10.00 Overcast -- 32.0 21.2 64% 26 NA 29.74 M
2:35 pm CST NW 8.1 10.00 Mostly Cloudy -- 32.0 21.2 64% 25 NA 29.74 M
1:55 pm CST NW 9.2 10.00 Overcast -- 32.0 23.0 69% 24 NA 29.73 M
12:55 pm CST NW 8.1 10.00 Overcast -- 32.0 23.0 69% 25 NA 29.73 M
12:35 pm CST NW 10.4 10.00 Overcast -- 32.0 23.0 69% 24 NA 29.73 M
11:55 am CST NW 8.1 10.00 Overcast -- 32.0 26.6 80% 25 NA 29.74 M
10:55 am CST NW 6.9 10.00 Overcast -- 32.0 26.6 80% 26 NA 29.75 M

Regional Weather Observation


Dubuque Regional Airport, IA (KDBQ)

Overcast
22.0 F

Platteville Municipal Airport, WI (KPVB)

Overcast
23.0 F

Iowa County Airport, WI (KMRJ)

Overcast
25.0 F

Clinton Municipal Airport, IA (KCWI)

Light Snow
24.0 F

Albertus Airport, IL (KFEP)

Overcast
24.0 F

Monroe Municipal Airport, WI (KEFT)

Overcast
24.0 F